Location: Kresge Environmental Education Center
(43.1138°N, 83.2433°W)
Time: 01:47:32
(UTC-04:00)

Daily predictions for brighter satellites

Satellite Brightness Start Highest point End
(mag) Time Altitude Azimuth Time Altitude Azimuth Time Altitude Azimuth
Cosmos 1455 2.5 00:03:11 10° NNW 00:06:56 59° W 00:07:33 50° SW
Cosmos 1869 3.3 00:02:53 10° NNW 00:06:57 76° W 00:07:41 57° SSW
Cosmos 2297 Rocket 2.2 00:10:26 41° S 00:12:17 63° ESE 00:17:53 10° NNE
ATLAS 3B R/B 3.1 00:05:22 10° NNW 00:12:22 58° NE 00:16:07 27° ESE
H-2A R/B 3.2 00:10:13 23° SW 00:12:49 37° W 00:17:49 10° NNW
GEOS 3 Rocket 4.1 00:11:06 28° ESE 00:13:38 53° NE 00:18:41 10° NNW
Cosmos 990 Rocket 4.2 00:13:38 27° SW 00:16:25 67° WNW 00:21:34 10° NNE
Lacrosse 4 Rocket 2.5 00:14:08 10° NNW 00:18:19 40° NE 00:19:36 32° E
Cosmos 2219 Rocket 2.8 00:15:18 10° NW 00:20:34 44° WSW 00:22:26 33° SSW
Cosmos 1269 Rocket 4.1 00:15:16 10° NNW 00:20:35 69° ENE 00:22:09 45° SE
Cosmos 1869 Rocket 3.8 00:21:53 51° ESE 00:22:20 53° E 00:26:42 10° NNE
Cosmos 1241 Rocket 4.4 00:20:29 21° SW 00:24:48 82° WNW 00:31:06 10° NNE
Cosmos 389 Rocket 3.5 00:23:48 10° N 00:26:58 37° ENE 00:26:58 37° ENE
ALOS 2 3.4 00:27:29 35° E 00:28:16 39° ENE 00:32:21 10° N
BREEZE-M DEB (TANK) 3.2 00:26:12 10° WNW 00:27:42 41° W 00:27:42 41° W
Cosmos 1980 4.3 00:30:41 10° NW 00:36:02 46° WSW 00:37:35 37° SSW
Terra 3.6 00:34:39 18° WSW 00:36:25 22° W 00:40:05 10° NW
H-2A R/B 3.1 00:36:18 10° NNE 00:40:11 43° E 00:40:11 43° E
Cosmos 44 Rocket 4.2 00:40:52 35° ESE 00:40:52 35° ESE 00:45:19 10° NE
Cosmos 1689 Rocket 3.7 00:42:10 32° NE 00:42:10 32° NE 00:44:47 10° N
CZ-4B R/B 2.4 00:44:09 40° ENE 00:44:09 40° ENE 00:47:08 10° N
COSMOS 2455 2.8 00:37:50 10° NNW 00:43:55 89° ENE 00:45:49 47° SSE
Cosmos 1900 4.2 00:41:57 10° NNW 00:46:58 87° WSW 00:47:46 63° SSE
Cosmos 1125 Rocket 3.5 00:46:29 47° SSW 00:48:04 82° WNW 00:53:26 10° NNE
Cosmos 1048 Rocket 4.0 00:43:39 10° NNW 00:49:02 85° WSW 00:50:14 56° S
Cosmos 2237 Rocket 3.0 00:43:53 10° NW 00:49:09 39° WSW 00:50:31 34° SW
Cosmos 2074 Rocket 4.1 00:47:39 44° SSE 00:49:31 64° E 00:55:45 10° NNE
BREEZE-M TANK 3.4 00:37:12 10° WSW 00:49:57 79° NNW 00:53:22 10° ENE
Meteor 2-3 Rocket 3.9 00:49:35 47° SE 00:50:54 59° E 00:56:32 10° NNE
NOSS 2-3 (C) 4.0 00:53:45 54° SE 00:54:05 55° ESE 00:59:35 10° NE
Cosmos 1703 Rocket 4.0 00:49:55 10° NNW 00:54:09 50° W 00:54:35 48° WSW
Cosmos 2221 Rocket 4.0 00:50:30 10° NNW 00:54:57 53° W 00:55:32 49° WSW
Cosmos 1709 Rocket 4.5 00:52:26 30° SW 00:55:15 53° WNW 01:01:14 10° N
Okean 1-7 2.8 00:51:07 10° N 00:55:25 79° W 00:55:37 77° SW
SeaSat 1 2.6 00:55:21 50° SW 00:56:01 54° WSW 01:00:53 10° NW
Cosmos 1892 3.9 00:58:06 32° ENE 00:58:06 32° ENE 01:00:59 10° NNE
Cosmos 1933 4.2 00:54:28 10° NNW 00:58:15 38° W 00:58:26 38° W
Aureole 2 Rocket 3.6 01:00:34 10° N 01:02:51 36° NNE 01:02:51 36° NNE
CZ-4C R/B 4.0 00:57:54 10° NNW 01:04:16 38° NE 01:11:17 10° ESE
Helios 1A Rocket 3.6 01:03:13 10° NNE 01:06:57 44° E 01:06:57 44° E
Cosmos 1674 Rocket 4.3 01:08:41 10° N 01:12:54 42° ENE 01:13:19 41° E
CZ-4C R/B 4.0 01:14:40 40° WNW 01:14:40 40° WNW 01:17:26 10° NNW
In-Cosmos 22 Rocket 4.2 01:12:49 52° SSW 01:14:17 81° W 01:20:05 10° N
NOSS 2-3 (D) 3.8 01:14:25 63° S 01:15:12 79° SE 01:20:53 10° NE
Cosmos 2154 Rocket 4.4 01:14:43 40° SE 01:16:28 50° E 01:22:31 10° NNE
ASTEX 1 3.2 01:12:16 10° N 01:17:12 89° E 01:17:51 68° S
Cosmos 1782 3.6 01:15:14 10° N 01:18:58 40° ENE 01:18:58 40° ENE
Cosmos 1238 Rocket 4.3 01:18:11 10° NNE 01:21:43 26° ENE 01:21:56 26° ENE
SL-08 ROCKET BODY 4.4 01:20:32 49° S 01:22:21 87° W 01:28:34 10° N
Cosmos 372 Rocket 4.1 01:21:19 50° SW 01:22:36 70° WNW 01:27:51 10° NNE
Cosmos 158 Rocket 3.9 01:18:52 10° NNW 01:24:12 80° WSW 01:24:59 64° S
ERBS 4.1 01:24:47 26° WNW 01:25:48 31° NW 01:28:56 10° NNE
Cosmos 921 Rocket 4.1 01:26:24 32° E 01:26:24 32° E 01:29:44 10° NE
Cosmos 1825 4.4 01:26:16 17° E 01:26:16 17° E 01:28:28 10° NE
Cosmos 1340 Rocket 2.9 01:26:58 67° NE 01:26:58 67° NE 01:30:31 10° NNE
Cosmos 1932 4.5 01:22:10 10° NNW 01:28:37 86° ENE 01:30:56 43° SE
Cosmos 2184 Rocket 4.1 01:26:37 44° SSW 01:28:37 69° W 01:34:49 10° N
Cosmos 2227 Rocket 4.1 01:24:38 10° WSW 01:29:16 25° NW 01:33:57 10° N
Cosmos 2084 Rocket 4.2 01:33:17 38° ENE 01:33:17 38° ENE 01:35:55 10° NE
Cosmos 2333 Rocket 4.2 01:33:25 10° WNW 01:36:12 14° W 01:37:11 13° WSW
Cosmos 2263 Rocket 3.7 01:35:36 21° ESE 01:36:19 21° E 01:40:31 10° NE
FALCON 9 R/B 3.7 01:27:42 10° W 01:36:25 29° SW 01:36:25 29° SW
SL-16 R/B 3.1 01:35:59 10° NW 01:41:01 33° WSW 01:41:37 32° WSW
Cosmos 2227 4.1 01:41:57 56° SSW 01:43:15 90° WNW 01:48:58 10° NNE
ATLAS 2AS CENTAUR R/B 3.9 01:35:59 10° WSW 01:43:18 47° NW 01:51:05 10° NNE
Cosmos 2341 Rocket 4.1 01:44:41 46° SSE 01:46:35 69° E 01:52:56 10° NNE
CZ-2C R/B 3.6 01:46:35 40° SE 01:48:32 62° ENE 01:54:06 10° N
Uosat 12 SS-18 rocket 4.1 01:48:32 69° SW 01:49:08 89° NW 01:53:37 10° NE
Meteor 1-27 Rocket 4.0 01:43:28 10° N 01:49:19 64° ENE 01:51:04 44° SE
Sich 1 Rocket 3.5 01:49:59 75° SE 01:50:12 77° E 01:54:43 10° N
Cosmos 44 3.5 01:51:01 58° SSE 01:51:37 63° ESE 01:57:01 10° NE
Cosmos 2251 Rocket 3.6 01:46:54 10° NNW 01:52:09 61° WSW 01:52:48 56° SW
Cosmos 2297 Rocket 4.2 01:52:26 10° W 01:56:49 22° NW 02:01:12 10° N
Lacrosse 4 Rocket 3.3 01:53:22 10° WNW 01:55:56 21° W 01:55:56 21° W
Geosat 4.3 01:53:18 10° NNE 01:58:17 62° WNW 01:59:41 44° WSW
Cosmos 962 Rocket 4.4 01:57:34 50° S 01:59:17 84° E 02:05:26 10° N
Cosmos 1862 3.6 02:02:07 57° E 02:02:07 57° E 02:05:55 10° NNE
ATLAS 3B R/B 3.5 01:56:48 10° NW 02:02:37 30° WSW 02:03:20 29° WSW
Cosmos 1733 Rocket 3.6 02:02:26 44° W 02:02:50 46° WNW 02:07:09 10° N
Meteor 2-10 Rocket 4.2 01:58:28 10° NNW 02:03:47 47° W 02:04:51 42° SW
CZ-2C R/B 2.5 01:58:36 10° N 02:03:51 78° WNW 02:04:56 56° SW
ALOS 2 4.4 02:04:53 20° W 02:04:53 20° W 02:08:00 10° NW
Cosmos 1356 Rocket 3.7 02:05:49 54° WNW 02:05:49 54° WNW 02:09:46 10° N
Cosmos 1943 3.4 02:00:27 10° NNW 02:06:08 67° ENE 02:08:22 37° SE
SL-8 Rocket 4.3 02:05:15 40° SSE 02:07:20 59° E 02:13:33 10° NNE
USA 238 DEB 3.8 02:00:47 10° NW 02:07:41 60° WSW 02:09:41 44° S
USA 238 3.8 02:00:53 10° NW 02:07:47 60° WSW 02:09:49 44° S
Coronas F rocket 3.9 02:11:14 19° NNW 02:11:14 19° NNW 02:12:22 10° NNW
Meteor 2-6 Rocket 4.4 02:04:23 10° NNW 02:10:08 63° W 02:11:32 49° SSW
Okean 3 3.6 02:07:24 10° N 02:11:43 66° E 02:12:06 62° ESE
Cosmos 2218 Rocket 4.4 02:10:59 37° SE 02:13:11 54° E 02:19:20 10° NNE
H-2A ROCKET BODY 4.4 01:48:06 10° W 02:13:14 32° SW 02:14:26 31° SSW
Cosmos 1603 4.1 02:09:21 10° NW 02:14:46 46° WSW 02:15:27 44° SW
Cosmos 1606 2.8 02:11:14 10° NNW 02:14:46 67° NW 02:14:46 67° NW
Cosmos 1378 Rocket 3.3 02:11:12 10° N 02:15:36 83° W 02:15:49 79° SSW
CZ-4B R/B 4.2 02:17:54 11° WNW 02:17:54 11° WNW 02:18:21 10° WNW
Meteor 2-13 Rocket 4.4 02:17:20 47° S 02:19:13 80° E 02:25:23 10° N
Cosmos 2366 rocket 4.2 02:27:26 38° SSE 02:29:41 63° E 02:35:47 10° NNE
USA 234 3.5 02:24:25 10° ESE 02:30:54 70° NE 02:37:26 10° NW
Okean 2 Rocket 3.0 02:30:45 66° SSE 02:31:20 80° E 02:35:52 10° N
Cosmos 1184 Rocket 3.9 02:34:38 39° E 02:34:38 39° E 02:37:31 10° NNE
Cosmos 1782 Rocket 3.4 02:37:33 65° SW 02:38:00 72° W 02:42:24 10° N
CENTAUR R/B 4.5 02:32:36 10° NNW 02:39:32 36° NE 02:46:57 10° ESE
NOSS 3-2 (C) 4.0 02:34:00 10° NW 02:41:31 88° NE 02:48:50 13° SE
BREEZE-M DEB (TANK) 4.3 02:45:27 10° WNW 02:47:15 18° W 02:47:15 18° W
Cosmos 1727 Rocket 4.0 02:43:28 10° N 02:49:45 82° E 02:52:37 34° SSE
SL-08 R/B 4.5 02:47:35 19° SE 02:50:44 41° ENE 02:55:20 10° N
CZ-4C R/B 2.9 02:46:14 10° NW 02:53:16 61° WSW 02:57:14 30° S
Cosmos 864 Rocket 4.4 02:51:33 40° S 02:53:59 90° E 03:00:11 10° N
Cosmos 1975 Rocket 3.6 02:55:53 10° NNW 03:00:01 41° W 03:00:19 40° WSW
Cosmos 1812 4.3 02:56:44 10° NNE 03:00:16 31° ENE 03:02:07 21° ESE
Cosmos 1825 3.3 03:01:12 31° W 03:01:20 31° WNW 03:04:47 10° NNW
ERS-2 3.5 02:58:07 10° NE 03:01:26 30° E 03:02:13 27° ESE
Cosmos 1408 3.8 03:02:06 31° W 03:02:13 31° WNW 03:05:37 10° NNW
NOSS 3-4 (A) 3.6 03:01:26 34° SW 03:04:27 78° NW 03:11:06 10° NE
NOSS 3-4 (C) 3.6 03:01:33 34° SW 03:04:33 79° NW 03:11:11 10° NE
NOSS 3-2 (A) 4.0 02:58:22 10° NW 03:05:45 60° WSW 03:10:44 24° S
USA 161 4.5 03:04:37 10° E 03:05:59 13° ENE 03:07:22 10° NE
Cosmos 1190 Rocket 4.3 03:01:33 10° NNW 03:06:46 63° ENE 03:10:22 20° SE
PSLV R/B 3.4 03:02:34 10° N 03:06:48 75° WNW 03:07:38 54° SW
BREEZE-M DEB (TANK) 4.4 03:03:45 10° WNW 03:07:10 45° NNE 03:18:03 10° E
CZ-2D R/B 4.5 03:05:07 10° NE 03:08:14 15° E 03:11:22 10° SE
Cosmos 1536 Rocket 3.5 03:07:34 10° N 03:11:58 83° E 03:13:24 42° SSE
Cosmos 1371 Rocket 4.0 03:12:16 40° SSW 03:14:14 79° WNW 03:19:38 10° NNE
RESURS DK-1 2.3 03:13:25 56° SSW 03:14:16 87° WNW 03:18:28 10° NNE
Cosmos 2056 Rocket 3.5 03:13:32 39° S 03:15:32 80° ESE 03:20:49 10° NNE
Cosmos 1844 Rocket 3.9 03:14:56 20° SSE 03:17:54 32° ESE 03:22:52 10° NE
Cosmos 2263 Rocket 2.5 03:17:17 32° SW 03:19:46 57° WNW 03:25:24 10° NNE
Cosmos 407 Rocket 3.7 03:18:24 10° NNW 03:23:34 70° ENE 03:27:41 16° SSE
IRS-1C 4.5 03:23:10 10° NNE 03:28:28 59° ESE 03:31:24 26° S
COSMOS 2406 3.3 03:23:14 10° NNW 03:29:03 79° ENE 03:34:45 10° SSE
Cosmos 2151 Rocket 3.8 03:28:41 40° SW 03:29:57 55° W 03:34:21 10° N
Cosmos 676 Rocket 4.4 03:25:03 10° NNW 03:30:12 60° ENE 03:35:19 10° SSE
Meteor 1-25 Rocket 4.2 03:27:44 31° S 03:30:36 87° E 03:36:26 10° N
Okean 1-7 Rocket 4.1 03:28:59 10° N 03:33:31 58° E 03:36:41 19° SSE
Cosmos 1000 Rocket 4.5 03:28:08 10° N 03:34:18 81° E 03:38:56 19° SSE
SL-27 R/B 2.8 03:33:21 10° NNW 03:37:00 67° ENE 03:39:04 24° SSE
Cosmos 2278 Rocket 4.0 03:32:47 10° SSE 03:37:03 23° E 03:41:21 10° NE
SL-16 R/B 3.5 03:33:40 10° SE 03:39:34 46° ENE 03:45:27 10° N
ATLAS 5 CENTAUR R/B 4.3 03:37:01 10° NNW 03:42:10 30° NE 03:47:37 10° E
Cosmos 909 Rocket 4.3 03:38:46 27° SW 03:42:31 76° NW 03:50:01 10° NNE
Okean 1 Rocket 3.2 03:41:19 30° S 03:43:28 74° E 03:47:56 10° NNE
IRS-P3 4.3 03:38:23 10° N 03:43:40 61° WNW 03:46:22 29° SW
Okean O Rocket 4.4 03:45:54 10° ENE 03:47:07 11° E 03:48:20 10° ESE
Cosmos 1867 4.3 03:45:18 10° NW 03:50:09 33° WSW 03:51:47 28° SW
Cosmos 1242 Rocket 4.0 03:51:22 10° NW 03:54:02 21° W 03:54:02 21° W
BREEZE-M DEB (TANK) 4.0 03:45:54 10° W 03:55:25 45° NNW 03:58:38 10° ENE
Cosmos 1821 Rocket 4.1 03:52:01 21° S 03:56:33 88° E 04:02:59 10° N
CBERS 1 LM4 rocket 4.3 03:51:39 10° NNE 03:56:38 83° WNW 03:59:26 26° SSW
GP-B 3.2 03:52:17 10° N 03:56:42 64° W 03:58:56 28° SSW
Resurs 1-4 Rocket 3.2 03:51:45 10° NNE 03:56:45 40° E 04:01:31 11° SSE
Cosmos 2123 Rocket 4.3 03:51:21 10° N 03:57:40 69° E 04:03:57 10° SSE
Cosmos 1954 Rocket 4.0 03:53:00 10° NNW 03:58:12 82° ENE 04:03:22 10° SSE
OPS 6431 4.4 04:00:54 10° NW 04:03:54 61° SW 04:05:21 26° SSE
Cosmos 1536 3.8 04:00:51 15° SSE 04:04:00 44° E 04:07:53 10° NNE
Abrixas rocket 2.5 04:02:22 26° W 04:04:06 64° NNW 04:07:27 10° ENE
UNKNOWN OBJECT B 4.4 04:08:06 10° NNE 04:11:49 33° E 04:15:32 10° SSE
Meteor 2-21 Rocket 4.4 04:08:12 18° S 04:12:52 85° W 04:19:01 10° N
Cosmos 1025 Rocket 3.2 04:09:49 10° N 04:14:07 74° E 04:18:25 10° SSE
USA 234 3.7 04:08:18 10° SSE 04:14:11 36° SW 04:20:08 10° WNW
Gbstr 26 Del rocket 3.0 04:12:40 26° SSW 04:14:37 53° SE 04:18:16 10° ENE
Cosmos 1633 3.3 04:13:03 14° SSE 04:15:52 48° E 04:19:23 10° NNE
Meteor 2-15 4.4 04:12:14 10° N 04:18:25 88° W 04:24:34 10° S
Cosmos 724 4.5 04:13:22 10° NW 04:19:20 56° WSW 04:25:22 10° SSE
ARIANE 5 R/B 2.5 04:14:22 10° NNE 04:19:23 86° ESE 04:23:26 16° SSW
ADEOS 3.8 04:14:42 10° N 04:19:50 58° WNW 04:23:30 19° SW
Cosmos 1452 Rocket 3.7 04:18:09 21° SW 04:21:40 63° WNW 04:26:54 10° NNE
Meteor 1-19 Rocket 4.3 04:15:58 10° N 04:21:48 89° W 04:27:39 10° S
SME Rocket 3.0 04:21:00 10° SSE 04:24:43 76° ENE 04:28:50 10° NNW
COSMOS 2487 2.6 04:26:19 10° NNW 04:29:58 81° ENE 04:33:35 10° SSE
CENTAUR R/B 3.1 04:23:06 10° NW 04:30:54 72° WSW 04:39:09 10° SSE
UNK 3.7 04:28:07 10° S 04:32:43 77° WSW 04:37:23 10° NNW
EO 1 Del DPAF 3.2 04:29:15 10° S 04:33:07 69° WSW 04:37:01 10° NNW
Tiangong 1 3.3 04:34:49 12° S 04:34:49 12° S 04:35:14 10° SSE
Cosmos 1420 Rocket 4.0 04:29:24 15° SSW 04:33:50 87° ESE 04:39:10 10° NNE
Cosmos 1544 Rocket 3.8 04:30:36 10° S 04:34:57 72° E 04:39:21 10° NNE
ERS-2 4.0 04:32:20 10° NNW 04:35:02 19° WNW 04:37:04 13° WSW
Meteor 1-11 Rocket 3.9 04:30:22 15° SSW 04:35:23 68° WNW 04:41:21 10° N
Cosmos 1812 4.5 04:33:15 10° NW 04:35:54 18° W 04:37:16 15° WSW
Cosmos 1023 Rocket 4.4 04:31:00 10° NNW 04:36:05 70° WSW 04:41:07 10° S
USA 161 2.7 04:35:20 21° WSW 04:36:07 24° W 04:38:34 10° NW
MOS 1-B 4.5 04:33:40 10° NNE 04:39:31 82° ESE 04:45:20 10° SSW
Cosmos 1400 Rocket 2.7 04:44:58 11° SSW 04:48:39 82° W 04:52:36 10° N
CZ-2D R/B 2.2 04:43:25 10° N 04:48:51 74° WNW 04:54:18 10° SSW
Cosmos 1892 Rocket 3.6 04:51:38 10° NNW 04:55:55 58° W 05:00:09 10° S
Cosmos 1140 Rocket 3.8 04:51:07 10° NNW 04:56:01 46° WSW 05:00:52 10° S
Meteor 1-23 Rocket 4.3 04:55:46 10° NNW 05:01:24 60° W 05:06:55 10° S
Cosmos 1844 Rocket 3.5 04:56:36 11° SW 05:01:40 40° WNW 05:06:59 10° NNE
Cosmos 1850 Rocket 4.2 04:58:29 10° NNW 05:03:34 52° WSW 05:08:39 10° S
NOSS 2-2 (D) 3.8 04:59:44 12° SW 05:03:37 63° NW 05:08:30 10° NNE
Timation 2 Rocket 3.9 04:58:20 10° NNW 05:04:32 81° WSW 05:10:31 10° SSE
CZ-4B R/B 4.2 05:00:11 10° NNE 05:04:35 46° E 05:08:54 10° S
Cosmos 1741 Rocket 4.2 04:59:36 10° NNW 05:04:45 53° WSW 05:09:50 10° S
BREEZE-M DEB (TANK) 3.2 05:02:53 10° SSW 05:05:16 26° SE 05:07:58 10° E
Cosmos 1844 4.2 05:00:55 11° SW 05:06:16 49° WNW 05:11:52 10° NNE
Cosmos 2061 Rocket 4.2 05:07:31 10° S 05:13:50 85° E 05:20:16 10° N
Cosmos 1315 Rocket 2.9 05:10:03 10° SSW 05:14:08 71° W 05:18:11 10° N
NOSS 2-2 (C) 4.2 05:14:04 10° WSW 05:18:07 47° NW 05:22:55 10° NNE
Cosmos 2297 3.9 05:12:39 10° SSW 05:18:17 78° ESE 05:24:00 10° NNE
Okean 2 3.9 05:15:07 10° NNW 05:18:58 40° W 05:22:48 10° SSW
Cosmos 2278 Rocket 2.6 05:15:09 10° SW 05:20:41 54° WNW 05:26:17 10° NNE
APEX 3.5 05:18:48 10° S 05:21:32 47° ESE 05:24:45 10° NE
SL-16 R/B 3.4 05:17:55 10° SSW 05:23:19 30° W 05:28:45 10° NW
Okean O Rocket 1.6 05:19:38 10° N 05:23:58 70° WNW 05:28:17 10° SSW
Meteor 1-5 Rocket 4.5 05:19:21 10° SSW 05:25:11 61° WNW 05:30:54 10° N
ATLAS 5 CENTAUR R/B 2.4 05:21:22 10° NW 05:27:18 64° WSW 05:33:37 10° SSE
